This is the latest recevied weather packets stored in our database for station/object N2PPN. If no packets are shown the sender has not sent any weather packets the latest 1 day(s).
| Time | Temp. | Humidity | Pressure | Rain* | Wind** | Luminosity | Snow |
|---|---|---|---|---|---|---|---|
| 1836274784 | 21.11° C | 56% | 1021.5 hPa | 0 mm | 0 m/s | 0 W/m² | - |
| 1836274482 | 21.11° C | 55% | 1021.6 hPa | 0 mm | 0.45 m/s, 39° | 0 W/m² | - |
| 1836274336 | 21.11° C | 56% | 1021.7 hPa | 0 mm | 0.89 m/s, 41° | 0 W/m² | - |
| 1836274180 | 21.67° C | 54% | 1021.4 hPa | 0 mm | 0 m/s | 0 W/m² | - |
| 1836273881 | 21.67° C | 54% | 1021.4 hPa | 0 mm | 0 m/s | 0 W/m² | - |
| 1778040320 | 14.44° C | 86% | 1014.8 hPa | 0 mm | 4.02 m/s, 236° | 0 W/m² | - |
| 1778040015 | 14.44° C | 86% | 1014.8 hPa | 0 mm | 4.47 m/s, 217° | 0 W/m² | - |
| 1778039713 | 15° C | 85% | 1014.9 hPa | 0 mm | 4.02 m/s, 252° | 0 W/m² | - |
| 1778039409 | 15° C | 85% | 1014.4 hPa | 0 mm | 4.92 m/s, 223° | 0 W/m² | - |
| 1778039107 | 15° C | 85% | 1014.7 hPa | 0 mm | 4.47 m/s, 202° | 0 W/m² | - |
| 1778038804 | 15° C | 84% | 1014.6 hPa | 0 mm | 4.02 m/s, 216° | 0 W/m² | - |
| 1778038501 | 15° C | 84% | 1014.5 hPa | 0 mm | 3.58 m/s, 241° | 0 W/m² | - |
| 1778038197 | 15° C | 84% | 1014.5 hPa | 0 mm | 4.47 m/s, 260° | 0 W/m² | - |
| 1778037895 | 15° C | 84% | 1014.5 hPa | 0 mm | 5.36 m/s, 215° | 0 W/m² | - |
| 1778037591 | 15° C | 84% | 1014.6 hPa | 0 mm | 1.79 m/s, 241° | 0 W/m² | - |
| 1778037289 | 15° C | 84% | 1014.4 hPa | 0 mm | 2.68 m/s, 205° | 0 W/m² | - |
| 1778036986 | 15° C | 84% | 1014.5 hPa | 0 mm | 3.13 m/s, 243° | 0 W/m² | - |
| 1778036684 | 15° C | 84% | 1014.5 hPa | 0 mm | 3.58 m/s, 220° | 0 W/m² | - |
| 1778036381 | 15.56° C | 84% | 1014.6 hPa | 0 mm | 2.68 m/s, 235° | 0 W/m² | - |
| 1778036078 | 15.56° C | 84% | 1014.6 hPa | 0 mm | 1.79 m/s, 243° | 0 W/m² | - |
| 1778035774 | 15.56° C | 84% | 1014.5 hPa | 0 mm | 1.79 m/s, 213° | 0 W/m² | - |
| 1778035471 | 15.56° C | 84% | 1014.5 hPa | 0 mm | 4.92 m/s, 192° | 0 W/m² | - |
| 1778035167 | 15.56° C | 84% | 1014.8 hPa | 0 mm | 4.02 m/s, 215° | 0 W/m² | - |
| 1778034864 | 15.56° C | 84% | 1014.7 hPa | 0 mm | 3.13 m/s, 207° | 0 W/m² | - |
| 1778034561 | 15.56° C | 83% | 1014.6 hPa | 0 mm | 4.92 m/s, 218° | 0 W/m² | - |
* Rain latest hour (hover to see other rain measurements)
** Current wind speed in m/s (hover to see current wind gust speed)